Flag for Gibraltar Weather past 2 weeks in Gibraltar, Gibraltar

Now
59 °F

Clear.


Feels Like: 57 °F
Forecast: 59 / 66 °F
Wind: 10 mph from West

Location: Gibraltar Airport

Current Time: Apr 19, 2015 at 6:58:32 AM

Latest Report: Apr 19, 2015 at 5:50 AM


Visibility: N/A

Pressure: 30.01 "Hg

Humidity: 77%

Dew point: 52 °F

Location of GibraltarLocation

Historic Weather in Gibraltar — Graph

°F

Gibraltar temperature yesterday

Maximum temperature yesterday: 73 °F (at 2:50 PM)
Minimum temperature yesterday: 57 °F (at 4:50 AM)
Average temperature yesterday: 64 °F

Past Weeks' High & Low Weather Summary

 TemperatureHumidityPressure
High73 °F (Apr 18, 2:50 PM)100% (Apr 6, 5:50 AM)30.24 "Hg (Apr 6, 5:50 AM)
Low55 °F (Apr 9, 4:50 AM)38% (Apr 17, 5:50 PM)29.80 "Hg (Apr 5, 6:50 PM)
Average61 °F80%30.08 "Hg
* Reported Apr 4 5:50 AM — Apr 19 5:50 AM, Gibraltar, Weather by CustomWeather, © 2015

Note: Actual official high and low records may vary slightly from our data, if they occured in-between our weather recording intervals... More about our weather records

Advertising

Gibraltar weather history for previous 24 hours

 ConditionsComfort  
Time TempWeatherWind HumidityBarometerVisibility
5:50 AM
Sun, Apr 19
59 °FClear.10 mph77%30.01 "HgN/A
4:50 AM61 °FClear.12 mph68%30.01 "HgN/A
3:50 AM61 °FClear.13 mph77%30.04 "HgN/A
2:50 AM61 °FPassing clouds.14 mph72%30.04 "HgN/A
1:50 AM61 °FClear.14 mph72%30.07 "HgN/A
12:50 AM61 °FClear.14 mph72%30.07 "HgN/A
11:50 PM
Sat, Apr 18
61 °FClear.14 mph72%30.04 "HgN/A
10:50 PM61 °FClear.15 mph72%30.04 "Hg10 mi
9:50 PM63 °FSunny.20 mph64%30.01 "Hg10 mi
8:50 PM66 °FPartly sunny.16 mph43%29.98 "HgN/A
7:50 PM68 °FPartly sunny.20 mph49%29.98 "HgN/A
6:50 PM72 °FPassing clouds.15 mph41%29.98 "HgN/A
5:50 PM73 °FScattered clouds.13 mph44%29.98 "HgN/A
4:50 PM70 °FScattered clouds.14 mph60%29.98 "HgN/A
3:50 PM72 °FPartly sunny.14 mph57%30.01 "HgN/A
2:50 PM73 °FPartly sunny.14 mph44%30.01 "HgN/A
1:50 PM72 °FPartly sunny.8 mph57%30.01 "HgN/A
12:50 PM68 °FPartly sunny.16 mph64%30.01 "HgN/A
11:50 AM64 °FScattered clouds.12 mph73%30.04 "HgN/A
10:50 AM63 °FScattered clouds.10 mph77%30.04 "HgN/A
9:50 AM59 °FScattered clouds.5 mph82%30.04 "HgN/A
8:50 AM57 °FScattered clouds.6 mph82%30.04 "HgN/A
7:50 AM57 °FClear.6 mph82%30.01 "Hg10 mi
6:50 AM57 °FClear.5 mph88%29.98 "Hg10 mi
Weather by CustomWeather, © 2015

See weather overviewHow to use our weather pages